Regional Weather Roundup
Issued by NWS

Current Version |  Previous Version |  Text Only |  Print | Product List |  Glossary On
Versions: 1 2 3 4 5 6 7 8 9 10 11 12 13 14 15 16 17 18 19 20 21 22 23 24 25 26 27 28 29 30 31 32 33 34 35 36 37 38 39 40 41 42 43 44 45 46 47 48 49 50
368
ASUS44 KOUN 280410
RWROK

WEATHER ROUNDUP FOR OKLAHOMA
NATIONAL WEATHER SERVICE NORMAN OK
1100 PM CDT MON MAY 27 2024

NOTE: "FAIR" INDICATES FEW OR NO CLOUDS BELOW 12,000 FEET WITH NO
      SIGNIFICANT WEATHER AND/OR OBSTRUCTIONS TO VISIBILITY.

OKZ001>007-009>012-014-015-017-280500-
NORTHWEST OKLAHOMA AND THE PANHANDLE

CITY           SKY/WX    TMP DP  RH WIND       PRES   REMARKS
GAGE           CLEAR     72  55  55 MISG      30.05R
GUYMON         CLEAR     72  43  35 SE7       30.07R
ENID/WOODRING  CLEAR     72  63  73 E8        30.04R
$$

OKZ016-021>023-033>039-044-045-280500-
SOUTHWEST OKLAHOMA

CITY           SKY/WX    TMP DP  RH WIND       PRES   REMARKS
LAWTON/REGL    PTCLDY    77  58  51 E9        30.00R
LAWTON/FT SILL PTCLDY    79  56  44 E9        29.98R
FREDERICK      MOCLDY    80  56  43 E13       29.97R
CLINTON        CLEAR     77  50  38 E12       30.05R
HOBART         CLEAR     74  56  53 E9        30.03R
ALTUS AFB      PTCLDY    79  54  41 E14       29.98R
$$

OKZ018>020-024>031-280500-
CENTRAL OKLAHOMA

CITY           SKY/WX    TMP DP  RH WIND       PRES   REMARKS
OKLAHOMA CITY  PTCLDY    78  60  53 E12       30.04R
OKC/WILEY POST PTCLDY    79  61  53 SE10      30.03R
OKC/TINKER AFB PTCLDY    75  62  64 SE7       30.00R
STILLWATER     CLEAR     72  63  73 E8        30.04R
GUTHRIE        CLEAR     76  62  62 SE8       30.03R
$$

OKZ008-013-054>072-280500-
NORTHEAST OKLAHOMA

CITY           SKY/WX    TMP DP  RH WIND       PRES   REMARKS
TULSA          CLEAR     75  62  64 E5        30.04R
TULSA/JONES    CLEAR     71  61  70 CALM      30.05R
PONCA CITY     CLEAR     72  61  68 E7        30.04R
MUSKOGEE       CLEAR     71  63  75 CALM      30.07R
$$

OKZ032-040>043-046>053-073>077-280500-
SOUTH CENTRAL/SOUTHEAST OKLAHOMA

CITY           SKY/WX    TMP DP  RH WIND       PRES   REMARKS
ARDMORE/DWNTWN MOCLDY    78  63  60 NE5       30.02S
MCALESTER      PTCLDY    70  63  78 E3        30.05R
$$